カタログに戻る

DELTA 1 R/B(2)

運用中GTO
NORAD 15402·ROCKET BODY·🇺🇸 United States

打ち上げ Nov 14, 1984 から Cape Canaveral Space Force Station

Loading…

TLE

経年Source: Space-Track

元期: Sep 14, 2026, 14:44 UTC

1 15402U 84115C   26257.61434841  .00000045  00000-0  34910-3 0  9993
2 15402  22.9181 233.5958 7127961 174.8399 201.5290  2.38422116295594

AllMySatでDELTA 1 R/B(2)をリアルタイム追跡

Download on the App Store